owner,sensor,date,latitude,longitude,sea_surface_height_above_sea_level,qcFlag 
COMPS,ioos:station:USF.COMPS:ARP:1,2010-02-03T14:00:00Z,28.4330,-82.6670,-0.446,1111122 
COMPS,ioos:station:USF.COMPS:ARP:1,2010-02-03T14:06:00Z,28.4330,-82.6670,-0.455,1111122 
COMPS,ioos:station:USF.COMPS:ARP:1,2010-02-03T14:12:00Z,28.4330,-82.6670,-0.464,1111122 
COMPS,ioos:station:USF.COMPS:ARP:1,2010-02-03T14:18:00Z,28.4330,-82.6670,-0.475,1111122 
COMPS,ioos:station:USF.COMPS:ARP:1,2010-02-03T14:24:00Z,28.4330,-82.6670,-0.485,1111122 
COMPS,ioos:station:USF.COMPS:ARP:1,2010-02-03T14:30:00Z,28.4330,-82.6670,-0.493,1111122 
COMPS,ioos:station:USF.COMPS:ARP:1,2010-02-03T14:36:00Z,28.4330,-82.6670,-0.502,1111122 
COMPS,ioos:station:USF.COMPS:ARP:1,2010-02-03T14:42:00Z,28.4330,-82.6670,-0.51,1111122 
COMPS,ioos:station:USF.COMPS:ARP:1,2010-02-03T14:48:00Z,28.4330,-82.6670,-0.517,1111122 
COMPS,ioos:station:USF.COMPS:ARP:1,2010-02-03T14:54:00Z,28.4330,-82.6670,-0.524,1111122 
COMPS,ioos:station:USF.COMPS:ARP:1,2010-02-03T15:00:00Z,28.4330,-82.6670,-0.532,1111122 
COMPS,ioos:station:USF.COMPS:ARP:1,2010-02-03T15:06:00Z,28.4330,-82.6670,-0.54,1111122 
COMPS,ioos:station:USF.COMPS:ARP:1,2010-02-03T15:12:00Z,28.4330,-82.6670,-0.546,1111122 
COMPS,ioos:station:USF.COMPS:ARP:1,2010-02-03T15:18:00Z,28.4330,-82.6670,-0.553,1111122 
COMPS,ioos:station:USF.COMPS:ARP:1,2010-02-03T15:24:00Z,28.4330,-82.6670,-0.557,1111122 
COMPS,ioos:station:USF.COMPS:ARP:1,2010-02-03T15:30:00Z,28.4330,-82.6670,-0.564,1111122 
COMPS,ioos:station:USF.COMPS:ARP:1,2010-02-03T15:36:00Z,28.4330,-82.6670,-0.569,1111122 
COMPS,ioos:station:USF.COMPS:ARP:1,2010-02-03T15:42:00Z,28.4330,-82.6670,-0.573,1111122 
COMPS,ioos:station:USF.COMPS:ARP:1,2010-02-03T15:48:00Z,28.4330,-82.6670,-0.57,1111122 
COMPS,ioos:station:USF.COMPS:ARP:1,2010-02-03T15:54:00Z,28.4330,-82.6670,-0.572,1111122 
COMPS,ioos:station:USF.COMPS:ARP:1,2010-02-03T16:00:00Z,28.4330,-82.6670,-0.601,1111122 
COMPS,ioos:station:USF.COMPS:ARP:1,2010-02-03T16:06:00Z,28.4330,-82.6670,-0.632,1111122 
COMPS,ioos:station:USF.COMPS:ARP:1,2010-02-03T16:12:00Z,28.4330,-82.6670,-0.633,1111122 
COMPS,ioos:station:USF.COMPS:ARP:1,2010-02-03T16:18:00Z,28.4330,-82.6670,-0.583,1111122 
COMPS,ioos:station:USF.COMPS:ARP:1,2010-02-03T16:24:00Z,28.4330,-82.6670,-0.569,1111122 
COMPS,ioos:station:USF.COMPS:ARP:1,2010-02-03T16:30:00Z,28.4330,-82.6670,-0.569,1111122 
COMPS,ioos:station:USF.COMPS:ARP:1,2010-02-03T16:36:00Z,28.4330,-82.6670,-0.569,1111122 
COMPS,ioos:station:USF.COMPS:ARP:1,2010-02-03T16:42:00Z,28.4330,-82.6670,-0.569,1111122 
COMPS,ioos:station:USF.COMPS:ARP:1,2010-02-03T16:48:00Z,28.4330,-82.6670,-0.57,1111122 
COMPS,ioos:station:USF.COMPS:ARP:1,2010-02-03T16:54:00Z,28.4330,-82.6670,-0.571,1111122 
COMPS,ioos:station:USF.COMPS:ARP:1,2010-02-03T17:00:00Z,28.4330,-82.6670,-0.572,1111122 
COMPS,ioos:station:USF.COMPS:ARP:1,2010-02-03T17:06:00Z,28.4330,-82.6670,-0.574,1111122 
COMPS,ioos:station:USF.COMPS:ARP:1,2010-02-03T17:12:00Z,28.4330,-82.6670,-0.574,1111122 
COMPS,ioos:station:USF.COMPS:ARP:1,2010-02-03T17:18:00Z,28.4330,-82.6670,-0.571,1111122 
COMPS,ioos:station:USF.COMPS:ARP:1,2010-02-03T17:24:00Z,28.4330,-82.6670,-0.571,1111122 
COMPS,ioos:station:USF.COMPS:ARP:1,2010-02-03T17:30:00Z,28.4330,-82.6670,-0.597,1111122 
COMPS,ioos:station:USF.COMPS:ARP:1,2010-02-03T17:36:00Z,28.4330,-82.6670,-0.638,1111122 
COMPS,ioos:station:USF.COMPS:ARP:1,2010-02-03T17:42:00Z,28.4330,-82.6670,-0.578,1111122 
COMPS,ioos:station:USF.COMPS:ARP:1,2010-02-03T17:48:00Z,28.4330,-82.6670,-0.58,1111122 
COMPS,ioos:station:USF.COMPS:ARP:1,2010-02-03T17:54:00Z,28.4330,-82.6670,-0.569,1111122 
COMPS,ioos:station:USF.COMPS:ARP:1,2010-02-03T18:00:00Z,28.4330,-82.6670,-0.553,1111122 
COMPS,ioos:station:USF.COMPS:ARP:1,2010-02-03T18:06:00Z,28.4330,-82.6670,-0.539,1111122 
COMPS,ioos:station:USF.COMPS:ARP:1,2010-02-03T18:12:00Z,28.4330,-82.6670,-0.519,1111122 
COMPS,ioos:station:USF.COMPS:ARP:1,2010-02-03T18:18:00Z,28.4330,-82.6670,-0.497,1111122 
COMPS,ioos:station:USF.COMPS:ARP:1,2010-02-03T18:24:00Z,28.4330,-82.6670,-0.472,1111122 
COMPS,ioos:station:USF.COMPS:ARP:1,2010-02-03T18:30:00Z,28.4330,-82.6670,-0.444,1111122 
COMPS,ioos:station:USF.COMPS:ARP:1,2010-02-03T18:36:00Z,28.4330,-82.6670,-0.412,1111122 
COMPS,ioos:station:USF.COMPS:ARP:1,2010-02-03T18:42:00Z,28.4330,-82.6670,-0.377,1111122 
COMPS,ioos:station:USF.COMPS:ARP:1,2010-02-03T18:48:00Z,28.4330,-82.6670,-0.34,1111122 
COMPS,ioos:station:USF.COMPS:ARP:1,2010-02-03T18:54:00Z,28.4330,-82.6670,-0.303,1111122 
COMPS,ioos:station:USF.COMPS:ARP:1,2010-02-03T19:00:00Z,28.4330,-82.6670,-0.265,1111122 
COMPS,ioos:station:USF.COMPS:ARP:1,2010-02-03T19:06:00Z,28.4330,-82.6670,-0.224,1111122 
COMPS,ioos:station:USF.COMPS:ARP:1,2010-02-03T19:12:00Z,28.4330,-82.6670,-0.181,1111122 
COMPS,ioos:station:USF.COMPS:ARP:1,2010-02-03T19:18:00Z,28.4330,-82.6670,-0.139,1111122 
COMPS,ioos:station:USF.COMPS:ARP:1,2010-02-03T19:24:00Z,28.4330,-82.6670,-0.102,1111122 
COMPS,ioos:station:USF.COMPS:ARP:1,2010-02-03T19:30:00Z,28.4330,-82.6670,-0.065,1111122 
COMPS,ioos:station:USF.COMPS:ARP:1,2010-02-03T19:36:00Z,28.4330,-82.6670,-0.025,1111122 
COMPS,ioos:station:USF.COMPS:ARP:1,2010-02-03T19:42:00Z,28.4330,-82.6670,0.012,1111122 
COMPS,ioos:station:USF.COMPS:ARP:1,2010-02-03T19:48:00Z,28.4330,-82.6670,0.045,1111122 
COMPS,ioos:station:USF.COMPS:ARP:1,2010-02-03T19:54:00Z,28.4330,-82.6670,0.077,1111122 
COMPS,ioos:station:USF.COMPS:ARP:1,2010-02-03T20:00:00Z,28.4330,-82.6670,0.106,1111122 
COMPS,ioos:station:USF.COMPS:ARP:1,2010-02-03T20:06:00Z,28.4330,-82.6670,0.131,1111122 
COMPS,ioos:station:USF.COMPS:ARP:1,2010-02-03T20:12:00Z,28.4330,-82.6670,0.152,1111122 
COMPS,ioos:station:USF.COMPS:ARP:1,2010-02-03T20:18:00Z,28.4330,-82.6670,0.175,1111122 
COMPS,ioos:station:USF.COMPS:ARP:1,2010-02-03T20:24:00Z,28.4330,-82.6670,0.195,1111122 
COMPS,ioos:station:USF.COMPS:ARP:1,2010-02-03T20:30:00Z,28.4330,-82.6670,0.213,1111122 
COMPS,ioos:station:USF.COMPS:ARP:1,2010-02-03T20:36:00Z,28.4330,-82.6670,0.232,1111122 
COMPS,ioos:station:USF.COMPS:ARP:1,2010-02-03T20:42:00Z,28.4330,-82.6670,0.246,1111122 
COMPS,ioos:station:USF.COMPS:ARP:1,2010-02-03T20:48:00Z,28.4330,-82.6670,0.258,1111122 
COMPS,ioos:station:USF.COMPS:ARP:1,2010-02-03T20:54:00Z,28.4330,-82.6670,0.268,1111122 
COMPS,ioos:station:USF.COMPS:ARP:1,2010-02-03T21:00:00Z,28.4330,-82.6670,0.269,1111122 
COMPS,ioos:station:USF.COMPS:ARP:1,2010-02-03T21:06:00Z,28.4330,-82.6670,0.272,1111122 
COMPS,ioos:station:USF.COMPS:ARP:1,2010-02-03T21:12:00Z,28.4330,-82.6670,0.275,1111122 
COMPS,ioos:station:USF.COMPS:ARP:1,2010-02-03T21:18:00Z,28.4330,-82.6670,0.276,1111122 
COMPS,ioos:station:USF.COMPS:ARP:1,2010-02-03T21:24:00Z,28.4330,-82.6670,0.279,1111122 
COMPS,ioos:station:USF.COMPS:ARP:1,2010-02-03T21:30:00Z,28.4330,-82.6670,0.281,1111122 
COMPS,ioos:station:USF.COMPS:ARP:1,2010-02-03T21:36:00Z,28.4330,-82.6670,0.282,1111122 
COMPS,ioos:station:USF.COMPS:ARP:1,2010-02-03T21:42:00Z,28.4330,-82.6670,0.282,1111122 
COMPS,ioos:station:USF.COMPS:ARP:1,2010-02-03T21:48:00Z,28.4330,-82.6670,0.263,1111122 
COMPS,ioos:station:USF.COMPS:ARP:1,2010-02-03T21:54:00Z,28.4330,-82.6670,0.258,1111122 
COMPS,ioos:station:USF.COMPS:ARP:1,2010-02-03T22:00:00Z,28.4330,-82.6670,0.232,1111122 
COMPS,ioos:station:USF.COMPS:ARP:1,2010-02-03T22:06:00Z,28.4330,-82.6670,0.219,1111122 
COMPS,ioos:station:USF.COMPS:ARP:1,2010-02-03T22:12:00Z,28.4330,-82.6670,0.201,1111122 
COMPS,ioos:station:USF.COMPS:ARP:1,2010-02-03T22:18:00Z,28.4330,-82.6670,0.201,1111122 
COMPS,ioos:station:USF.COMPS:ARP:1,2010-02-03T22:24:00Z,28.4330,-82.6670,0.189,1111122 
COMPS,ioos:station:USF.COMPS:ARP:1,2010-02-03T22:30:00Z,28.4330,-82.6670,0.169,1111122 
COMPS,ioos:station:USF.COMPS:ARP:1,2010-02-03T22:36:00Z,28.4330,-82.6670,0.162,1111122 
COMPS,ioos:station:USF.COMPS:ARP:1,2010-02-03T22:42:00Z,28.4330,-82.6670,0.15,1111122 
COMPS,ioos:station:USF.COMPS:ARP:1,2010-02-03T22:48:00Z,28.4330,-82.6670,0.131,1111122 
COMPS,ioos:station:USF.COMPS:ARP:1,2010-02-03T22:54:00Z,28.4330,-82.6670,0.125,1111122 
COMPS,ioos:station:USF.COMPS:ARP:1,2010-02-03T23:00:00Z,28.4330,-82.6670,0.109,1111122 
COMPS,ioos:station:USF.COMPS:ARP:1,2010-02-03T23:06:00Z,28.4330,-82.6670,0.085,1111122 
COMPS,ioos:station:USF.COMPS:ARP:1,2010-02-03T23:12:00Z,28.4330,-82.6670,0.074,1111122 
COMPS,ioos:station:USF.COMPS:ARP:1,2010-02-03T23:18:00Z,28.4330,-82.6670,0.055,1111122 
COMPS,ioos:station:USF.COMPS:ARP:1,2010-02-03T23:24:00Z,28.4330,-82.6670,0.039,1111122 
COMPS,ioos:station:USF.COMPS:ARP:1,2010-02-03T23:30:00Z,28.4330,-82.6670,0.022,1111122 
COMPS,ioos:station:USF.COMPS:ARP:1,2010-02-03T23:36:00Z,28.4330,-82.6670,0.003,1111122 
COMPS,ioos:station:USF.COMPS:ARP:1,2010-02-03T23:42:00Z,28.4330,-82.6670,-0.012,1111122 
COMPS,ioos:station:USF.COMPS:ARP:1,2010-02-03T23:48:00Z,28.4330,-82.6670,-0.031,1111122 
COMPS,ioos:station:USF.COMPS:ARP:1,2010-02-03T23:54:00Z,28.4330,-82.6670,-0.048,1111122 
COMPS,ioos:station:USF.COMPS:ARP:1,2010-02-04T00:00:00Z,28.4330,-82.6670,-0.066,1111122 
COMPS,ioos:station:USF.COMPS:ARP:1,2010-02-04T00:06:00Z,28.4330,-82.6670,-0.083,1111122 
COMPS,ioos:station:USF.COMPS:ARP:1,2010-02-04T00:12:00Z,28.4330,-82.6670,-0.1,1111122 
COMPS,ioos:station:USF.COMPS:ARP:1,2010-02-04T00:18:00Z,28.4330,-82.6670,-0.12,1111122 
COMPS,ioos:station:USF.COMPS:ARP:1,2010-02-04T00:24:00Z,28.4330,-82.6670,-0.135,1111122 
COMPS,ioos:station:USF.COMPS:ARP:1,2010-02-04T00:30:00Z,28.4330,-82.6670,-0.153,1111122 
COMPS,ioos:station:USF.COMPS:ARP:1,2010-02-04T00:36:00Z,28.4330,-82.6670,-0.171,1111122 
COMPS,ioos:station:USF.COMPS:ARP:1,2010-02-04T00:42:00Z,28.4330,-82.6670,-0.188,1111122 
COMPS,ioos:station:USF.COMPS:ARP:1,2010-02-04T00:48:00Z,28.4330,-82.6670,-0.205,1111122 
COMPS,ioos:station:USF.COMPS:ARP:1,2010-02-04T00:54:00Z,28.4330,-82.6670,-0.221,1111122 
COMPS,ioos:station:USF.COMPS:ARP:1,2010-02-04T01:00:00Z,28.4330,-82.6670,-0.236,1111122 
COMPS,ioos:station:USF.COMPS:ARP:1,2010-02-04T01:06:00Z,28.4330,-82.6670,-0.25,1111122 
COMPS,ioos:station:USF.COMPS:ARP:1,2010-02-04T01:12:00Z,28.4330,-82.6670,-0.266,1111122 
COMPS,ioos:station:USF.COMPS:ARP:1,2010-02-04T01:18:00Z,28.4330,-82.6670,-0.281,1111122 
COMPS,ioos:station:USF.COMPS:ARP:1,2010-02-04T01:24:00Z,28.4330,-82.6670,-0.295,1111122 
COMPS,ioos:station:USF.COMPS:ARP:1,2010-02-04T01:30:00Z,28.4330,-82.6670,-0.308,1111122 
COMPS,ioos:station:USF.COMPS:ARP:1,2010-02-04T01:36:00Z,28.4330,-82.6670,-0.323,1111122 
COMPS,ioos:station:USF.COMPS:ARP:1,2010-02-04T01:42:00Z,28.4330,-82.6670,-0.337,1111122 
COMPS,ioos:station:USF.COMPS:ARP:1,2010-02-04T01:48:00Z,28.4330,-82.6670,-0.351,1111122 
COMPS,ioos:station:USF.COMPS:ARP:1,2010-02-04T01:54:00Z,28.4330,-82.6670,-0.364,1111122 
COMPS,ioos:station:USF.COMPS:ARP:1,2010-02-04T02:00:00Z,28.4330,-82.6670,-0.377,1111122 
COMPS,ioos:station:USF.COMPS:ARP:1,2010-02-04T02:06:00Z,28.4330,-82.6670,-0.39,1111122 
COMPS,ioos:station:USF.COMPS:ARP:1,2010-02-04T02:12:00Z,28.4330,-82.6670,-0.403,1111122 
COMPS,ioos:station:USF.COMPS:ARP:1,2010-02-04T02:18:00Z,28.4330,-82.6670,-0.415,1111122 
COMPS,ioos:station:USF.COMPS:ARP:1,2010-02-04T02:24:00Z,28.4330,-82.6670,-0.427,1111122 
COMPS,ioos:station:USF.COMPS:ARP:1,2010-02-04T02:30:00Z,28.4330,-82.6670,-0.438,1111122 
COMPS,ioos:station:USF.COMPS:ARP:1,2010-02-04T02:36:00Z,28.4330,-82.6670,-0.449,1111122 
COMPS,ioos:station:USF.COMPS:ARP:1,2010-02-04T02:42:00Z,28.4330,-82.6670,-0.459,1111122 
COMPS,ioos:station:USF.COMPS:ARP:1,2010-02-04T02:48:00Z,28.4330,-82.6670,-0.47,1111122 
COMPS,ioos:station:USF.COMPS:ARP:1,2010-02-04T02:54:00Z,28.4330,-82.6670,-0.48,1111122 
COMPS,ioos:station:USF.COMPS:ARP:1,2010-02-04T03:00:00Z,28.4330,-82.6670,-0.489,1111122 
COMPS,ioos:station:USF.COMPS:ARP:1,2010-02-04T03:06:00Z,28.4330,-82.6670,-0.497,1111122 
COMPS,ioos:station:USF.COMPS:ARP:1,2010-02-04T03:12:00Z,28.4330,-82.6670,-0.506,1111122 
COMPS,ioos:station:USF.COMPS:ARP:1,2010-02-04T03:18:00Z,28.4330,-82.6670,-0.515,1111122 
COMPS,ioos:station:USF.COMPS:ARP:1,2010-02-04T03:24:00Z,28.4330,-82.6670,-0.523,1111122 
COMPS,ioos:station:USF.COMPS:ARP:1,2010-02-04T03:30:00Z,28.4330,-82.6670,-0.531,1111122 
COMPS,ioos:station:USF.COMPS:ARP:1,2010-02-04T03:36:00Z,28.4330,-82.6670,-0.538,1111122 
COMPS,ioos:station:USF.COMPS:ARP:1,2010-02-04T03:42:00Z,28.4330,-82.6670,-0.545,1111122 
COMPS,ioos:station:USF.COMPS:ARP:1,2010-02-04T03:48:00Z,28.4330,-82.6670,-0.552,1111122 
COMPS,ioos:station:USF.COMPS:ARP:1,2010-02-04T03:54:00Z,28.4330,-82.6670,-0.558,1111122 
COMPS,ioos:station:USF.COMPS:ARP:1,2010-02-04T04:00:00Z,28.4330,-82.6670,-0.565,1111122 
COMPS,ioos:station:USF.COMPS:ARP:1,2010-02-04T04:06:00Z,28.4330,-82.6670,-0.571,1111122 
COMPS,ioos:station:USF.COMPS:ARP:1,2010-02-04T04:12:00Z,28.4330,-82.6670,-0.577,1111122 
COMPS,ioos:station:USF.COMPS:ARP:1,2010-02-04T04:18:00Z,28.4330,-82.6670,-0.583,1111122 
COMPS,ioos:station:USF.COMPS:ARP:1,2010-02-04T04:24:00Z,28.4330,-82.6670,-0.58,1111122 
COMPS,ioos:station:USF.COMPS:ARP:1,2010-02-04T04:30:00Z,28.4330,-82.6670,-0.58,1111122 
COMPS,ioos:station:USF.COMPS:ARP:1,2010-02-04T04:36:00Z,28.4330,-82.6670,-0.617,1111122 
COMPS,ioos:station:USF.COMPS:ARP:1,2010-02-04T04:42:00Z,28.4330,-82.6670,-0.64,1111122 
COMPS,ioos:station:USF.COMPS:ARP:1,2010-02-04T04:48:00Z,28.4330,-82.6670,-0.641,1111122 
COMPS,ioos:station:USF.COMPS:ARP:1,2010-02-04T04:54:00Z,28.4330,-82.6670,-0.577,1111122 
COMPS,ioos:station:USF.COMPS:ARP:1,2010-02-04T05:00:00Z,28.4330,-82.6670,-0.576,1111122 
COMPS,ioos:station:USF.COMPS:ARP:1,2010-02-04T05:06:00Z,28.4330,-82.6670,-0.577,1111122 
COMPS,ioos:station:USF.COMPS:ARP:1,2010-02-04T05:12:00Z,28.4330,-82.6670,-0.576,1111122 
COMPS,ioos:station:USF.COMPS:ARP:1,2010-02-04T05:18:00Z,28.4330,-82.6670,-0.576,1111122 
COMPS,ioos:station:USF.COMPS:ARP:1,2010-02-04T05:24:00Z,28.4330,-82.6670,-0.576,1111122 
COMPS,ioos:station:USF.COMPS:ARP:1,2010-02-04T05:30:00Z,28.4330,-82.6670,-0.576,1111122 
COMPS,ioos:station:USF.COMPS:ARP:1,2010-02-04T05:36:00Z,28.4330,-82.6670,-0.576,1111122 
COMPS,ioos:station:USF.COMPS:ARP:1,2010-02-04T05:42:00Z,28.4330,-82.6670,-0.576,1111122 
COMPS,ioos:station:USF.COMPS:ARP:1,2010-02-04T05:48:00Z,28.4330,-82.6670,-0.576,1111122 
COMPS,ioos:station:USF.COMPS:ARP:1,2010-02-04T05:54:00Z,28.4330,-82.6670,-0.577,1111122 
COMPS,ioos:station:USF.COMPS:ARP:1,2010-02-04T06:00:00Z,28.4330,-82.6670,-0.577,1111122 
COMPS,ioos:station:USF.COMPS:ARP:1,2010-02-04T06:06:00Z,28.4330,-82.6670,-0.577,1111122 
COMPS,ioos:station:USF.COMPS:ARP:1,2010-02-04T06:12:00Z,28.4330,-82.6670,-0.576,1111122 
COMPS,ioos:station:USF.COMPS:ARP:1,2010-02-04T06:18:00Z,28.4330,-82.6670,-0.576,1111122 
COMPS,ioos:station:USF.COMPS:ARP:1,2010-02-04T06:24:00Z,28.4330,-82.6670,-0.576,1111122 
COMPS,ioos:station:USF.COMPS:ARP:1,2010-02-04T06:30:00Z,28.4330,-82.6670,-0.577,1111122 
COMPS,ioos:station:USF.COMPS:ARP:1,2010-02-04T06:36:00Z,28.4330,-82.6670,-0.577,1111122 
COMPS,ioos:station:USF.COMPS:ARP:1,2010-02-04T06:42:00Z,28.4330,-82.6670,-0.612,1111122 
COMPS,ioos:station:USF.COMPS:ARP:1,2010-02-04T06:48:00Z,28.4330,-82.6670,-0.625,1111122 
COMPS,ioos:station:USF.COMPS:ARP:1,2010-02-04T06:54:00Z,28.4330,-82.6670,-0.58,1111122 
COMPS,ioos:station:USF.COMPS:ARP:1,2010-02-04T07:00:00Z,28.4330,-82.6670,-0.576,1111122 
COMPS,ioos:station:USF.COMPS:ARP:1,2010-02-04T07:06:00Z,28.4330,-82.6670,-0.562,1111122 
COMPS,ioos:station:USF.COMPS:ARP:1,2010-02-04T07:12:00Z,28.4330,-82.6670,-0.546,1111122 
COMPS,ioos:station:USF.COMPS:ARP:1,2010-02-04T07:18:00Z,28.4330,-82.6670,-0.529,1111122 
COMPS,ioos:station:USF.COMPS:ARP:1,2010-02-04T07:24:00Z,28.4330,-82.6670,-0.512,1111122 
COMPS,ioos:station:USF.COMPS:ARP:1,2010-02-04T07:30:00Z,28.4330,-82.6670,-0.493,1111122 
COMPS,ioos:station:USF.COMPS:ARP:1,2010-02-04T07:36:00Z,28.4330,-82.6670,-0.473,1111122 
COMPS,ioos:station:USF.COMPS:ARP:1,2010-02-04T07:42:00Z,28.4330,-82.6670,-0.452,1111122 
COMPS,ioos:station:USF.COMPS:ARP:1,2010-02-04T07:48:00Z,28.4330,-82.6670,-0.43,1111122 
COMPS,ioos:station:USF.COMPS:ARP:1,2010-02-04T07:54:00Z,28.4330,-82.6670,-0.406,1111122 
COMPS,ioos:station:USF.COMPS:ARP:1,2010-02-04T08:00:00Z,28.4330,-82.6670,-0.38,1111122 
COMPS,ioos:station:USF.COMPS:ARP:1,2010-02-04T08:06:00Z,28.4330,-82.6670,-0.357,1111122 
COMPS,ioos:station:USF.COMPS:ARP:1,2010-02-04T08:12:00Z,28.4330,-82.6670,-0.334,1111122 
COMPS,ioos:station:USF.COMPS:ARP:1,2010-02-04T08:18:00Z,28.4330,-82.6670,-0.312,1111122 
COMPS,ioos:station:USF.COMPS:ARP:1,2010-02-04T08:24:00Z,28.4330,-82.6670,-0.29,1111122 
COMPS,ioos:station:USF.COMPS:ARP:1,2010-02-04T08:30:00Z,28.4330,-82.6670,-0.27,1111122 
COMPS,ioos:station:USF.COMPS:ARP:1,2010-02-04T08:36:00Z,28.4330,-82.6670,-0.25,1111122 
COMPS,ioos:station:USF.COMPS:ARP:1,2010-02-04T08:42:00Z,28.4330,-82.6670,-0.231,1111122 
COMPS,ioos:station:USF.COMPS:ARP:1,2010-02-04T08:48:00Z,28.4330,-82.6670,-0.212,1111122 
COMPS,ioos:station:USF.COMPS:ARP:1,2010-02-04T08:54:00Z,28.4330,-82.6670,-0.194,1111122 
COMPS,ioos:station:USF.COMPS:ARP:1,2010-02-04T09:00:00Z,28.4330,-82.6670,-0.173,1111122 
COMPS,ioos:station:USF.COMPS:ARP:1,2010-02-04T09:06:00Z,28.4330,-82.6670,-0.16,1111122 
COMPS,ioos:station:USF.COMPS:ARP:1,2010-02-04T09:12:00Z,28.4330,-82.6670,-0.144,1111122 
COMPS,ioos:station:USF.COMPS:ARP:1,2010-02-04T09:18:00Z,28.4330,-82.6670,-0.135,1111122 
COMPS,ioos:station:USF.COMPS:ARP:1,2010-02-04T09:24:00Z,28.4330,-82.6670,-0.128,1111122 
COMPS,ioos:station:USF.COMPS:ARP:1,2010-02-04T09:30:00Z,28.4330,-82.6670,-0.125,1111122 
COMPS,ioos:station:USF.COMPS:ARP:1,2010-02-04T09:36:00Z,28.4330,-82.6670,-0.123,1111122 
COMPS,ioos:station:USF.COMPS:ARP:1,2010-02-04T09:42:00Z,28.4330,-82.6670,-0.126,1111122 
COMPS,ioos:station:USF.COMPS:ARP:1,2010-02-04T09:48:00Z,28.4330,-82.6670,-0.124,1111122 
COMPS,ioos:station:USF.COMPS:ARP:1,2010-02-04T09:54:00Z,28.4330,-82.6670,-0.122,1111122 
COMPS,ioos:station:USF.COMPS:ARP:1,2010-02-04T10:00:00Z,28.4330,-82.6670,-0.112,1111122 
COMPS,ioos:station:USF.COMPS:ARP:1,2010-02-04T10:06:00Z,28.4330,-82.6670,-0.115,1111122 
COMPS,ioos:station:USF.COMPS:ARP:1,2010-02-04T10:12:00Z,28.4330,-82.6670,-0.115,1111122 
COMPS,ioos:station:USF.COMPS:ARP:1,2010-02-04T10:18:00Z,28.4330,-82.6670,-0.112,1111122 
COMPS,ioos:station:USF.COMPS:ARP:1,2010-02-04T10:24:00Z,28.4330,-82.6670,-0.11,1111122 
COMPS,ioos:station:USF.COMPS:ARP:1,2010-02-04T10:30:00Z,28.4330,-82.6670,-0.107,1111122 
COMPS,ioos:station:USF.COMPS:ARP:1,2010-02-04T10:36:00Z,28.4330,-82.6670,-0.094,1111122 
COMPS,ioos:station:USF.COMPS:ARP:1,2010-02-04T10:42:00Z,28.4330,-82.6670,-0.087,1111122 
COMPS,ioos:station:USF.COMPS:ARP:1,2010-02-04T10:48:00Z,28.4330,-82.6670,-0.082,1111122 
COMPS,ioos:station:USF.COMPS:ARP:1,2010-02-04T10:54:00Z,28.4330,-82.6670,-0.082,1111122 
COMPS,ioos:station:USF.COMPS:ARP:1,2010-02-04T11:00:00Z,28.4330,-82.6670,-0.08,1111122 
COMPS,ioos:station:USF.COMPS:ARP:1,2010-02-04T11:06:00Z,28.4330,-82.6670,-0.081,1111122 
COMPS,ioos:station:USF.COMPS:ARP:1,2010-02-04T11:12:00Z,28.4330,-82.6670,-0.074,1111122 
COMPS,ioos:station:USF.COMPS:ARP:1,2010-02-04T11:18:00Z,28.4330,-82.6670,-0.068,1111122 
COMPS,ioos:station:USF.COMPS:ARP:1,2010-02-04T11:24:00Z,28.4330,-82.6670,-0.058,1111122 
COMPS,ioos:station:USF.COMPS:ARP:1,2010-02-04T11:30:00Z,28.4330,-82.6670,-0.052,1111122 
COMPS,ioos:station:USF.COMPS:ARP:1,2010-02-04T11:36:00Z,28.4330,-82.6670,-0.053,1111122 
COMPS,ioos:station:USF.COMPS:ARP:1,2010-02-04T11:42:00Z,28.4330,-82.6670,-0.071,1111122 
COMPS,ioos:station:USF.COMPS:ARP:1,2010-02-04T11:48:00Z,28.4330,-82.6670,-0.082,1111122 
COMPS,ioos:station:USF.COMPS:ARP:1,2010-02-04T11:54:00Z,28.4330,-82.6670,-0.095,1111122 
COMPS,ioos:station:USF.COMPS:ARP:1,2010-02-04T12:00:00Z,28.4330,-82.6670,-0.106,1111122 
COMPS,ioos:station:USF.COMPS:ARP:1,2010-02-04T12:06:00Z,28.4330,-82.6670,-0.124,1111122 
COMPS,ioos:station:USF.COMPS:ARP:1,2010-02-04T12:12:00Z,28.4330,-82.6670,-0.136,1111122 
COMPS,ioos:station:USF.COMPS:ARP:1,2010-02-04T12:18:00Z,28.4330,-82.6670,-0.148,1111122 
COMPS,ioos:station:USF.COMPS:ARP:1,2010-02-04T12:24:00Z,28.4330,-82.6670,-0.163,1111122 
COMPS,ioos:station:USF.COMPS:ARP:1,2010-02-04T12:30:00Z,28.4330,-82.6670,-0.173,1111122 
COMPS,ioos:station:USF.COMPS:ARP:1,2010-02-04T12:36:00Z,28.4330,-82.6670,-0.179,1111122 
COMPS,ioos:station:USF.COMPS:ARP:1,2010-02-04T12:42:00Z,28.4330,-82.6670,-0.188,1111122 
COMPS,ioos:station:USF.COMPS:ARP:1,2010-02-04T12:48:00Z,28.4330,-82.6670,-0.2,1111122 
COMPS,ioos:station:USF.COMPS:ARP:1,2010-02-04T12:54:00Z,28.4330,-82.6670,-0.21,1111122 
COMPS,ioos:station:USF.COMPS:ARP:1,2010-02-04T13:00:00Z,28.4330,-82.6670,-0.215,1111122 
COMPS,ioos:station:USF.COMPS:ARP:1,2010-02-04T13:06:00Z,28.4330,-82.6670,-0.225,1111122 
COMPS,ioos:station:USF.COMPS:ARP:1,2010-02-04T13:12:00Z,28.4330,-82.6670,-0.237,1111122 
COMPS,ioos:station:USF.COMPS:ARP:1,2010-02-04T13:18:00Z,28.4330,-82.6670,-0.248,1111122 
COMPS,ioos:station:USF.COMPS:ARP:1,2010-02-04T13:24:00Z,28.4330,-82.6670,-0.258,1111122 
COMPS,ioos:station:USF.COMPS:ARP:1,2010-02-04T13:30:00Z,28.4330,-82.6670,-0.268,1111122 
COMPS,ioos:station:USF.COMPS:ARP:1,2010-02-04T13:36:00Z,28.4330,-82.6670,-0.275,1111122 
COMPS,ioos:station:USF.COMPS:ARP:1,2010-02-04T13:42:00Z,28.4330,-82.6670,-0.286,1111122 
COMPS,ioos:station:USF.COMPS:ARP:1,2010-02-04T13:48:00Z,28.4330,-82.6670,-0.296,1111122 
COMPS,ioos:station:USF.COMPS:ARP:1,2010-02-04T13:54:00Z,28.4330,-82.6670,-0.307,1111122 
COMPS,ioos:station:USF.COMPS:ARP:1,2010-02-04T14:00:00Z,28.4330,-82.6670,-0.32,1111122 
COMPS,ioos:station:USF.COMPS:ARP:1,2010-02-04T14:06:00Z,28.4330,-82.6670,-0.331,1111122 
COMPS,ioos:station:USF.COMPS:ARP:1,2010-02-04T14:12:00Z,28.4330,-82.6670,-0.341,1111122 
COMPS,ioos:station:USF.COMPS:ARP:1,2010-02-04T14:18:00Z,28.4330,-82.6670,-0.352,1111122 
COMPS,ioos:station:USF.COMPS:ARP:1,2010-02-04T14:24:00Z,28.4330,-82.6670,-0.362,1111122 
COMPS,ioos:station:USF.COMPS:ARP:1,2010-02-04T14:30:00Z,28.4330,-82.6670,-0.37,1111122 
COMPS,ioos:station:USF.COMPS:ARP:1,2010-02-04T14:36:00Z,28.4330,-82.6670,-0.381,1111122 
COMPS,ioos:station:USF.COMPS:ARP:1,2010-02-04T14:42:00Z,28.4330,-82.6670,-0.39,1111122 
COMPS,ioos:station:USF.COMPS:ARP:1,2010-02-04T14:48:00Z,28.4330,-82.6670,-0.399,1111122 
COMPS,ioos:station:USF.COMPS:ARP:1,2010-02-04T14:54:00Z,28.4330,-82.6670,-0.408,1111122 
COMPS,ioos:station:USF.COMPS:ARP:1,2010-02-04T15:00:00Z,28.4330,-82.6670,-0.418,1111122 
COMPS,ioos:station:USF.COMPS:ARP:1,2010-02-04T15:06:00Z,28.4330,-82.6670,-0.428,1111122 
COMPS,ioos:station:USF.COMPS:ARP:1,2010-02-04T15:12:00Z,28.4330,-82.6670,-0.435,1111122 
COMPS,ioos:station:USF.COMPS:ARP:1,2010-02-04T15:18:00Z,28.4330,-82.6670,-0.445,1111122 
COMPS,ioos:station:USF.COMPS:ARP:1,2010-02-04T15:24:00Z,28.4330,-82.6670,-0.45,1111122 
COMPS,ioos:station:USF.COMPS:ARP:1,2010-02-04T15:30:00Z,28.4330,-82.6670,-0.456,1111122 
COMPS,ioos:station:USF.COMPS:ARP:1,2010-02-04T15:36:00Z,28.4330,-82.6670,-0.464,1111122 
COMPS,ioos:station:USF.COMPS:ARP:1,2010-02-04T15:42:00Z,28.4330,-82.6670,-0.471,1111122 
COMPS,ioos:station:USF.COMPS:ARP:1,2010-02-04T15:48:00Z,28.4330,-82.6670,-0.476,1111122 
COMPS,ioos:station:USF.COMPS:ARP:1,2010-02-04T15:54:00Z,28.4330,-82.6670,-0.483,1111122 
COMPS,ioos:station:USF.COMPS:ARP:1,2010-02-04T16:00:00Z,28.4330,-82.6670,-0.49,1111122 
COMPS,ioos:station:USF.COMPS:ARP:1,2010-02-04T16:06:00Z,28.4330,-82.6670,-0.496,1111122 
COMPS,ioos:station:USF.COMPS:ARP:1,2010-02-04T16:12:00Z,28.4330,-82.6670,-0.502,1111122 
COMPS,ioos:station:USF.COMPS:ARP:1,2010-02-04T16:18:00Z,28.4330,-82.6670,-0.508,1111122 
COMPS,ioos:station:USF.COMPS:ARP:1,2010-02-04T16:24:00Z,28.4330,-82.6670,-0.51,1111122 
COMPS,ioos:station:USF.COMPS:ARP:1,2010-02-04T16:30:00Z,28.4330,-82.6670,-0.512,1111122 
COMPS,ioos:station:USF.COMPS:ARP:1,2010-02-04T16:36:00Z,28.4330,-82.6670,-0.507,1111122 
COMPS,ioos:station:USF.COMPS:ARP:1,2010-02-04T16:42:00Z,28.4330,-82.6670,-0.505,1111122 
COMPS,ioos:station:USF.COMPS:ARP:1,2010-02-04T16:48:00Z,28.4330,-82.6670,-0.501,1111122 